Voltar ao catálogo

FENGYUN 1C DEB

AtivoPO
NORAD 33676·DEBRIS·🇨🇳 China

Lançado May 10, 1999 de Taiyuan Satellite Launch Center

Loading…

Próximas Passagens (próximas 24 horas)

TLE

AtualizadoSource: Space-Track

Época: Sep 14, 2026, 09:32 UTC

1 33676U 99025DFM 26257.39727246  .00000176  00000-0  63952-4 0  9995
2 33676  99.0662 301.6045 0203182 343.3706  16.0879 14.35801788692665

Acompanhe FENGYUN 1C DEB em tempo real com AllMySat

Download on the App Store